sat.trackr.live / text

‹ back to catalog

STARLINK-36552

NORAD 67503 · 2026-012L

PAYLOAD ACTIVE UNKNOWN

§ Identity

Operator
Country
US
Launch date
2026-01-18
Launch site
AFETR
Launch vehicle
Mass (kg)
RCS (m²)

Purposes: comms

External: N2YO · Heavens-Above · Gunter

§ Orbital elements

Epoch: 2026-05-24T23:53:39.998976Z

Period
94.27 min
Inclination
42.9989°
Eccentricity
0.0001499
Mean motion
15.27585116 rev/d
Perigee alt
482.0 km
Apogee alt
484.1 km
Semi-major
6,861.2 km
B*
5.1703e-4
RAAN
243.3097°
Arg perigee
291.0868°
Mean anomaly
68.9823°
Rev number
1,943

§ Raw data

STARLINK-365521 67503U 26012L   26144.99560184  .00013995  00000+0  51703-3 0  99962 67503  42.9989 243.3097 0001499 291.0868  68.9823 15.27585116 19433

JSON: /api/v1/satellites/67503 · /tle

For live sub-satellite position, see the globe view (requires WebGL).

§ Visibility from observer

Set your observer location to see the next 7 days of passes ≥ 10°. The values pass through the URL so the page stays shareable.

No JS? Fill the form by hand. The geolocation button needs JavaScript.